This is the latest recevied weather packets stored in our database for station/object F4FEB-13. If no packets are shown the sender has not sent any weather packets the latest 10 day(s).
| Time | Temp. | Humidity | Pressure | Rain* | Wind** | Luminosity | Snow |
|---|---|---|---|---|---|---|---|
| 1777789165 | 16.11° C | 45% | 1015.4 hPa | 0 mm | - | - | - |
| 1777788868 | 16.11° C | 45% | 1015.4 hPa | 0 mm | - | - | - |
| 1777788865 | 16.11° C | 45% | 1015.4 hPa | 0 mm | - | - | - |
| 1777788565 | 16.11° C | 45% | 1015.5 hPa | 0 mm | - | - | - |
| 1777788265 | 15.56° C | 45% | 1015.6 hPa | 0 mm | - | - | - |
| 1777787965 | 15.56° C | 46% | 1015.5 hPa | 0 mm | - | - | - |
| 1777787665 | 15° C | 48% | 1015.5 hPa | 0 mm | - | - | - |
| 1777787365 | 14.44° C | 55% | 1015.6 hPa | 0 mm | - | - | - |
| 1777787065 | 14.44° C | 55% | 1015.7 hPa | 0 mm | - | - | - |
| 1777786765 | 14.44° C | 54% | 1015.7 hPa | 0 mm | - | - | - |
| 1777786465 | 14.44° C | 55% | 1015.8 hPa | 0 mm | - | - | - |
| 1777786165 | 14.44° C | 53% | 1015.7 hPa | 0 mm | - | - | - |
| 1777785865 | 14.44° C | 53% | 1015.6 hPa | 0 mm | - | - | - |
| 1777785565 | 14.44° C | 54% | 1015.6 hPa | 0 mm | - | - | - |
| 1777785265 | 14.44° C | 53% | 1015.7 hPa | 0 mm | - | - | - |
| 1777784965 | 13.89° C | 52% | 1015.7 hPa | 0 mm | - | - | - |
| 1777784665 | 13.89° C | 53% | 1015.6 hPa | 0 mm | - | - | - |
| 1777784365 | 13.89° C | 55% | 1015.6 hPa | 0 mm | - | - | - |
| 1777784065 | 13.89° C | 56% | 1015.7 hPa | 0 mm | - | - | - |
| 1777783765 | 13.89° C | 55% | 1015.8 hPa | 0 mm | - | - | - |
| 1777783470 | 13.33° C | 56% | 1015.8 hPa | 0 mm | - | - | - |
| 1777783465 | 13.33° C | 56% | 1015.8 hPa | 0 mm | - | - | - |
| 1777783166 | 13.33° C | 58% | 1015.9 hPa | 0 mm | - | - | - |
| 1777782865 | 12.78° C | 62% | 1015.7 hPa | 0 mm | - | - | - |
| 1777782569 | 12.78° C | 62% | 1015.6 hPa | 0 mm | - | - | - |
* Rain latest hour (hover to see other rain measurements)
** Current wind speed in m/s (hover to see current wind gust speed)